| time (UTC) | temp C | wind direction | speed KPH | gust KPH | rain 1hr cm | rain 24hr cm | rain mn cm | humidity % | barometer mb |
| 20260508102346 | 11 | 347 | 8.0 | 0.0 | 0.00 | 0.00 | 0.03 | 33 | 1024.0 |
| 20260508101836 | 11 | 305 | 8.0 | 0.0 | 0.00 | 0.00 | 0.03 | 34 | 1024.0 |
| 20260508101329 | 11 | 276 | 8.0 | 0.0 | 0.00 | 0.00 | 0.03 | 37 | 1023.9 |
| 20260508100829 | 11 | 285 | 9.7 | 0.0 | 0.00 | 0.00 | 0.03 | 34 | 1023.9 |
| 20260508100348 | 11 | 300 | 9.7 | 0.0 | 0.00 | 0.00 | 0.03 | 35 | 1023.9 |
| 20260508095842 | 11 | 323 | 11.3 | 0.0 | 0.00 | 0.00 | 0.03 | 34 | 1023.9 |
| 20260508095338 | 10 | 293 | 11.3 | 0.0 | 0.00 | 0.00 | 0.03 | 33 | 1023.9 |
| 20260508094830 | 11 | 283 | 11.3 | 0.0 | 0.00 | 0.00 | 0.03 | 32 | 1023.9 |
| 20260508094356 | 11 | 258 | 9.7 | 0.0 | 0.00 | 0.00 | 0.03 | 34 | 1023.7 |
| 20260508093848 | 11 | 309 | 8.0 | 0.0 | 0.00 | 0.00 | 0.03 | 39 | 1023.7 |
| 20260508093343 | 11 | 292 | 8.0 | 0.0 | 0.00 | 0.00 | 0.03 | 39 | 1023.7 |
| 20260508092833 | 10 | 261 | 6.4 | 0.0 | 0.00 | 0.00 | 0.03 | 40 | 1023.6 |
| 20260508092347 | 11 | 254 | 6.4 | 0.0 | 0.00 | 0.00 | 0.03 | 41 | 1023.6 |
| 20260508091838 | 10 | 267 | 8.0 | 0.0 | 0.00 | 0.00 | 0.03 | 43 | 1023.6 |
| 20260508091330 | 10 | 295 | 8.0 | 0.0 | 0.00 | 0.00 | 0.03 | 40 | 1023.6 |
| 20260508090854 | 10 | 331 | 6.4 | 0.0 | 0.00 | 0.00 | 0.03 | 45 | 1023.6 |
| 20260508090353 | 10 | 257 | 6.4 | 0.0 | 0.00 | 0.00 | 0.03 | 43 | 1023.6 |
| 20260508085844 | 10 | 227 | 8.0 | 0.0 | 0.00 | 0.00 | 0.03 | 44 | 1023.5 |
| 20260508085340 | 10 | 251 | 8.0 | 0.0 | 0.00 | 0.00 | 0.03 | 39 | 1023.5 |
| 20260508084838 | 10 | 241 | 4.8 | 0.0 | 0.00 | 0.00 | 0.03 | 45 | 1023.5 |
| 20260508084331 | 10 | 272 | 6.4 | 0.0 | 0.00 | 0.00 | 0.03 | 52 | 1023.4 |
| 20260508083843 | 10 | 282 | 6.4 | 0.0 | 0.00 | 0.00 | 0.03 | 50 | 1023.4 |
| 20260508083340 | 10 | 241 | 6.4 | 0.0 | 0.00 | 0.00 | 0.03 | 50 | 1023.4 |
| 20260508082830 | 10 | 324 | 4.8 | 0.0 | 0.00 | 0.00 | 0.03 | 50 | 1023.3 |
| 20260508082343 | 10 | 286 | 4.8 | 0.0 | 0.00 | 0.00 | 0.03 | 51 | 1023.3 |
| 20260508081835 | 10 | 204 | 4.8 | 0.0 | 0.00 | 0.00 | 0.03 | 52 | 1023.3 |
| 20260508081339 | 10 | 224 | 4.8 | 0.0 | 0.00 | 0.00 | 0.03 | 51 | 1023.2 |
| 20260508080835 | 10 | 268 | 4.8 | 0.0 | 0.00 | 0.00 | 0.03 | 54 | 1023.2 |
| 20260508080348 | 9 | 254 | 6.4 | 0.0 | 0.00 | 0.00 | 0.03 | 56 | 1023.2 |
| 20260508075841 | 9 | 258 | 6.4 | 0.0 | 0.00 | 0.00 | 0.03 | 58 | 1023.1 |
| 20260508075330 | 9 | 295 | 4.8 | 0.0 | 0.00 | 0.00 | 0.03 | 56 | 1023.1 |
| 20260508074843 | 9 | 281 | 4.8 | 0.0 | 0.00 | 0.00 | 0.03 | 57 | 1023.1 |
| 20260508074336 | 9 | 265 | 4.8 | 0.0 | 0.00 | 0.00 | 0.03 | 61 | 1023.0 |
| 20260508073828 | 9 | 261 | 6.4 | 0.0 | 0.00 | 0.00 | 0.03 | 63 | 1023.0 |
| 20260508073354 | 9 | 196 | 6.4 | 0.0 | 0.00 | 0.00 | 0.03 | 64 | 1023.0 |
| 20260508072848 | 9 | 182 | 3.2 | 0.0 | 0.00 | 0.00 | 0.03 | 63 | 1022.9 |
| 20260508072341 | 9 | 288 | 3.2 | 0.0 | 0.00 | 0.00 | 0.03 | 63 | 1022.9 |
| 20260508071834 | 9 | 298 | 3.2 | 0.0 | 0.00 | 0.00 | 0.03 | 63 | 1022.9 |
| 20260508071330 | 8 | 316 | 4.8 | 0.0 | 0.00 | 0.00 | 0.03 | 61 | 1022.7 |
| 20260508070845 | 8 | 245 | 4.8 | 0.0 | 0.00 | 0.00 | 0.03 | 64 | 1022.7 |
| 20260508070338 | 8 | 179 | 4.8 | 0.0 | 0.00 | 0.00 | 0.03 | 65 | 1022.7 |
| 20260508065836 | 8 | 233 | 6.4 | 0.0 | 0.00 | 0.00 | 0.03 | 67 | 1022.5 |
| 20260508065329 | 8 | 221 | 6.4 | 0.0 | 0.00 | 0.00 | 0.03 | 67 | 1022.5 |
| 20260508064844 | 8 | 209 | 3.2 | 0.0 | 0.00 | 0.00 | 0.03 | 67 | 1022.5 |
| 20260508064337 | 8 | 226 | 1.6 | 0.0 | 0.00 | 0.00 | 0.03 | 68 | 1022.3 |
| 20260508063829 | 8 | 269 | 0.0 | 0.0 | 0.00 | 0.00 | 0.03 | 67 | 1022.3 |
| 20260508063357 | 8 | 289 | 0.0 | 0.0 | 0.00 | 0.00 | 0.03 | 68 | 1022.3 |
| 20260508062847 | 8 | 235 | 0.0 | 0.0 | 0.00 | 0.00 | 0.03 | 69 | 1022.1 |
| 20260508062340 | 8 | 224 | 0.0 | 0.0 | 0.00 | 0.00 | 0.03 | 71 | 1022.1 |
| 20260508061832 | 7 | 203 | 0.0 | 0.0 | 0.00 | 0.00 | 0.03 | 72 | 1022.1 |
| 20260508061341 | 7 | 185 | 0.0 | 0.0 | 0.00 | 0.00 | 0.03 | 73 | 1022.0 |
| 20260508060833 | 7 | 243 | 0.0 | 0.0 | 0.00 | 0.00 | 0.03 | 75 | 1022.0 |
| 20260508060359 | 7 | 203 | 0.0 | 0.0 | 0.00 | 0.00 | 0.03 | 77 | 1022.0 |
| 20260508055853 | 7 | 179 | 0.0 | 0.0 | 0.00 | 0.00 | 0.03 | 79 | 1021.8 |
| 20260508055345 | 6 | 228 | 0.0 | 0.0 | 0.00 | 0.00 | 0.03 | 80 | 1021.8 |
| 20260508054840 | 6 | 228 | 0.0 | 0.0 | 0.00 | 0.00 | 0.03 | 82 | 1021.8 |
| 20260508054333 | 6 | 224 | 0.0 | 0.0 | 0.00 | 0.00 | 0.03 | 86 | 1021.6 |
| 20260508053829 | 5 | 224 | 0.0 | 0.0 | 0.00 | 0.00 | 0.03 | 90 | 1021.6 |
| 20260508053344 | 5 | 224 | 0.0 | 0.0 | 0.00 | 0.00 | 0.03 | 93 | 1021.6 |
| 20260508052837 | 5 | 224 | 0.0 | 0.0 | 0.00 | 0.00 | 0.03 | 97 | 1021.4 |
| 20260508052330 | 4 | 224 | 0.0 | 0.0 | 0.00 | 0.00 | 0.03 | 98 | 1021.4 |
| 20260508051838 | 4 | 223 | 0.0 | 0.0 | 0.00 | 0.00 | 0.03 | 98 | 1021.4 |
| 20260508051331 | 3 | 223 | 0.0 | 0.0 | 0.00 | 0.00 | 0.03 | 98 | 1021.4 |
| 20260508050855 | 3 | 221 | 0.0 | 0.0 | 0.00 | 0.00 | 0.03 | 98 | 1021.4 |
| 20260508050350 | 3 | 227 | 0.0 | 0.0 | 0.00 | 0.00 | 0.03 | 98 | 1021.4 |
| 20260508045840 | 3 | 227 | 0.0 | 0.0 | 0.00 | 0.00 | 0.03 | 98 | 1021.2 |
| 20260508045333 | 3 | 227 | 0.0 | 0.0 | 0.00 | 0.00 | 0.03 | 98 | 1021.2 |
| 20260508044844 | 2 | 227 | 0.0 | 0.0 | 0.00 | 0.00 | 0.03 | 98 | 1021.2 |
| 20260508044337 | 2 | 227 | 0.0 | 0.0 | 0.00 | 0.00 | 0.03 | 98 | 1021.1 |
| 20260508043833 | 2 | 227 | 0.0 | 0.0 | 0.00 | 0.00 | 0.00 | 98 | 1021.1 |
| 20260508043343 | 2 | 227 | 0.0 | 0.0 | 0.00 | 0.00 | 0.00 | 98 | 1021.1 |
| 20260508042833 | 2 | 228 | 0.0 | 0.0 | 0.00 | 0.00 | 0.00 | 98 | 1021.0 |
| 20260508042357 | 1 | 228 | 0.0 | 0.0 | 0.00 | 0.00 | 0.00 | 98 | 1021.0 |
| 20260508041853 | 1 | 228 | 0.0 | 0.0 | 0.00 | 0.00 | 0.00 | 98 | 1021.0 |
| 20260508041346 | 1 | 228 | 0.0 | 0.0 | 0.00 | 0.00 | 0.00 | 98 | 1020.8 |
| 20260508040838 | 1 | 228 | 0.0 | 0.0 | 0.00 | 0.00 | 0.00 | 98 | 1020.8 |
| 20260508040333 | 0 | 228 | 0.0 | 0.0 | 0.00 | 0.00 | 0.00 | 98 | 1020.8 |
| 20260508035848 | 0 | 228 | 0.0 | 0.0 | 0.00 | 0.00 | 0.00 | 98 | 1020.7 |
| 20260508035341 | 0 | 228 | 0.0 | 0.0 | 0.00 | 0.00 | 0.00 | 98 | 1020.7 |
| 20260508034833 | 0 | 228 | 0.0 | 0.0 | 0.00 | 0.00 | 0.00 | 98 | 1020.7 |
| 20260508034354 | 0 | 228 | 0.0 | 0.0 | 0.00 | 0.00 | 0.00 | 98 | 1020.5 |
| 20260508033846 | 0 | 231 | 0.0 | 0.0 | 0.00 | 0.00 | 0.00 | 98 | 1020.5 |
| 20260508033342 | 0 | 231 | 0.0 | 0.0 | 0.00 | 0.00 | 0.00 | 98 | 1020.5 |
| 20260508032832 | 0 | 231 | 0.0 | 0.0 | 0.00 | 0.00 | 0.00 | 98 | 1020.3 |
| 20260508032345 | 0 | 231 | 0.0 | 0.0 | 0.00 | 0.00 | 0.00 | 98 | 1020.3 |
| 20260508031838 | -1 | 231 | 0.0 | 0.0 | 0.00 | 0.00 | 0.00 | 98 | 1020.3 |
| 20260508031329 | -1 | 231 | 0.0 | 0.0 | 0.00 | 0.00 | 0.00 | 98 | 1020.2 |
| 20260508030846 | -1 | 231 | 0.0 | 0.0 | 0.00 | 0.00 | 0.00 | 98 | 1020.2 |
| 20260508030340 | -2 | 231 | 0.0 | 0.0 | 0.00 | 0.00 | 0.00 | 98 | 1020.2 |
| 20260508025834 | -2 | 231 | 0.0 | 0.0 | 0.00 | 0.00 | 0.00 | 98 | 1020.1 |
| 20260508025355 | -2 | 231 | 0.0 | 0.0 | 0.00 | 0.00 | 0.00 | 98 | 1020.1 |
| 20260508024846 | -2 | 231 | 0.0 | 0.0 | 0.00 | 0.00 | 0.00 | 98 | 1020.1 |
| 20260508024339 | -2 | 231 | 0.0 | 0.0 | 0.00 | 0.00 | 0.00 | 98 | 1020.0 |
| 20260508023831 | -2 | 231 | 0.0 | 0.0 | 0.00 | 0.00 | 0.00 | 98 | 1020.0 |
| 20260508023345 | -2 | 231 | 0.0 | 0.0 | 0.00 | 0.00 | 0.00 | 98 | 1020.0 |
| 20260508022836 | -2 | 231 | 0.0 | 0.0 | 0.00 | 0.00 | 0.00 | 98 | 1019.9 |
| 20260508022329 | -2 | 231 | 0.0 | 0.0 | 0.00 | 0.00 | 0.00 | 98 | 1019.9 |
| 20260508021842 | -2 | 231 | 0.0 | 0.0 | 0.00 | 0.00 | 0.00 | 98 | 1019.9 |
| 20260508021335 | -2 | 231 | 0.0 | 0.0 | 0.00 | 0.00 | 0.00 | 98 | 1019.8 |
| 20260508020859 | -2 | 231 | 0.0 | 0.0 | 0.00 | 0.00 | 0.00 | 98 | 1019.8 |
| 20260508020334 | -2 | 231 | 0.0 | 0.0 | 0.00 | 0.00 | 0.00 | 98 | 1019.8 |
| 20260508015839 | -1 | 231 | 0.0 | 0.0 | 0.00 | 0.00 | 0.00 | 98 | 1019.6 |
| 20260508015332 | -1 | 231 | 0.0 | 0.0 | 0.00 | 0.00 | 0.00 | 98 | 1019.6 |
| 20260508014845 | -1 | 231 | 0.0 | 0.0 | 0.00 | 0.00 | 0.00 | 98 | 1019.6 |
| 20260508014338 | -1 | 231 | 0.0 | 0.0 | 0.00 | 0.00 | 0.00 | 98 | 1019.4 |
| 20260508013830 | -1 | 231 | 0.0 | 0.0 | 0.00 | 0.00 | 0.00 | 98 | 1019.4 |
| 20260508013357 | -1 | 231 | 0.0 | 0.0 | 0.00 | 0.00 | 0.00 | 98 | 1019.4 |
| 20260508012851 | -1 | 231 | 0.0 | 0.0 | 0.00 | 0.00 | 0.00 | 98 | 1019.3 |
| 20260508012343 | -1 | 231 | 0.0 | 0.0 | 0.00 | 0.00 | 0.00 | 98 | 1019.3 |
| 20260508011835 | -1 | 231 | 0.0 | 0.0 | 0.00 | 0.00 | 0.00 | 98 | 1019.3 |
| 20260508011343 | -1 | 231 | 0.0 | 0.0 | 0.00 | 0.00 | 0.00 | 98 | 1019.3 |
| 20260508010836 | -1 | 231 | 0.0 | 0.0 | 0.00 | 0.00 | 0.00 | 98 | 1019.3 |
| 20260508010331 | -1 | 231 | 0.0 | 0.0 | 0.00 | 0.00 | 0.00 | 98 | 1019.3 |
| 20260508005840 | -1 | 231 | 0.0 | 0.0 | 0.00 | 0.00 | 0.00 | 98 | 1019.1 |
| 20260508005333 | -1 | 243 | 0.0 | 0.0 | 0.00 | 0.00 | 0.00 | 98 | 1019.1 |
| 20260508004857 | -1 | 243 | 0.0 | 0.0 | 0.00 | 0.00 | 0.00 | 98 | 1019.1 |
| 20260508004354 | -1 | 243 | 0.0 | 0.0 | 0.00 | 0.00 | 0.00 | 98 | 1019.0 |
| 20260508003846 | -1 | 243 | 0.0 | 0.0 | 0.00 | 0.00 | 0.00 | 98 | 1019.0 |
| 20260508003343 | -1 | 243 | 0.0 | 0.0 | 0.00 | 0.00 | 0.00 | 98 | 1019.0 |
| 20260508002833 | -1 | 243 | 0.0 | 0.0 | 0.00 | 0.00 | 0.00 | 98 | 1018.8 |
| 20260508002343 | -1 | 243 | 0.0 | 0.0 | 0.00 | 0.00 | 0.00 | 98 | 1018.8 |
| 20260508001835 | -1 | 243 | 0.0 | 0.0 | 0.00 | 0.00 | 0.00 | 98 | 1018.8 |
| 20260508001332 | -1 | 243 | 0.0 | 0.0 | 0.00 | 0.00 | 0.00 | 98 | 1018.7 |
| 20260508000856 | -1 | 243 | 0.0 | 0.0 | 0.00 | 0.00 | 0.00 | 98 | 1018.7 |
| 20260508000354 | -1 | 243 | 0.0 | 0.0 | 0.00 | 0.00 | 0.00 | 98 | 1018.7 |
| 20260507235845 | 0 | 243 | 0.0 | 0.0 | 0.00 | 0.00 | 0.00 | 98 | 1018.4 |
| 20260507235338 | 0 | 243 | 0.0 | 0.0 | 0.00 | 0.00 | 0.00 | 98 | 1018.4 |
| 20260507234830 | 0 | 243 | 0.0 | 0.0 | 0.00 | 0.00 | 0.00 | 98 | 1018.4 |
| 20260507234347 | 0 | 243 | 0.0 | 0.0 | 0.00 | 0.00 | 0.00 | 98 | 1018.3 |
| 20260507233839 | -1 | 243 | 0.0 | 0.0 | 0.00 | 0.00 | 0.00 | 98 | 1018.3 |
| 20260507233334 | -1 | 243 | 0.0 | 0.0 | 0.00 | 0.00 | 0.00 | 98 | 1018.3 |
| 20260507232845 | -1 | 243 | 0.0 | 0.0 | 0.00 | 0.00 | 0.00 | 98 | 1018.2 |
| 20260507232342 | -1 | 243 | 0.0 | 0.0 | 0.00 | 0.00 | 0.00 | 98 | 1018.2 |
| 20260507231834 | -1 | 243 | 0.0 | 0.0 | 0.00 | 0.00 | 0.00 | 98 | 1018.2 |
| 20260507231330 | -1 | 243 | 0.0 | 0.0 | 0.00 | 0.00 | 0.00 | 98 | 1018.1 |
| 20260507230853 | -1 | 243 | 0.0 | 0.0 | 0.00 | 0.00 | 0.00 | 98 | 1018.1 |
| 20260507230347 | -1 | 243 | 0.0 | 0.0 | 0.00 | 0.00 | 0.00 | 98 | 1018.1 |
| 20260507225838 | 0 | 243 | 0.0 | 0.0 | 0.00 | 0.00 | 0.00 | 98 | 1018.0 |
| 20260507225331 | 0 | 243 | 0.0 | 0.0 | 0.00 | 0.00 | 0.00 | 98 | 1018.0 |
| 20260507224844 | 0 | 243 | 0.0 | 0.0 | 0.00 | 0.00 | 0.00 | 98 | 1018.0 |
| 20260507224337 | -1 | 243 | 0.0 | 0.0 | 0.00 | 0.00 | 0.00 | 98 | 1017.9 |
| 20260507223856 | -1 | 243 | 0.0 | 0.0 | 0.00 | 0.00 | 0.00 | 98 | 1017.9 |
| 20260507223348 | 0 | 243 | 0.0 | 0.0 | 0.00 | 0.00 | 0.00 | 98 | 1017.9 |
| 20260507222839 | 0 | 243 | 0.0 | 0.0 | 0.00 | 0.00 | 0.00 | 98 | 1017.8 |
| 20260507222332 | 0 | 243 | 0.0 | 0.0 | 0.00 | 0.00 | 0.00 | 98 | 1017.8 |
| 20260507221845 | 0 | 243 | 0.0 | 0.0 | 0.00 | 0.00 | 0.00 | 98 | 1017.8 |
| 20260507221338 | 0 | 243 | 0.0 | 0.0 | 0.00 | 0.00 | 0.00 | 98 | 1017.7 |
| 20260507220830 | 0 | 243 | 0.0 | 0.0 | 0.00 | 0.00 | 0.00 | 98 | 1017.7 |
| 20260507220332 | 0 | 243 | 0.0 | 0.0 | 0.00 | 0.00 | 0.00 | 98 | 1017.7 |
| 20260507215843 | 0 | 243 | 0.0 | 0.0 | 0.00 | 0.00 | 0.00 | 98 | 1017.5 |
| 20260507215336 | 0 | 243 | 0.0 | 0.0 | 0.00 | 0.00 | 0.00 | 98 | 1017.5 |
| 20260507214855 | -1 | 243 | 0.0 | 0.0 | 0.00 | 0.00 | 0.00 | 98 | 1017.5 |
| 20260507214352 | -1 | 244 | 0.0 | 0.0 | 0.00 | 0.00 | 0.00 | 98 | 1017.4 |
| 20260507213848 | 0 | 244 | 0.0 | 0.0 | 0.00 | 0.00 | 0.00 | 98 | 1017.4 |
| 20260507213343 | 0 | 245 | 0.0 | 0.0 | 0.00 | 0.00 | 0.00 | 98 | 1017.4 |
| 20260507212840 | 0 | 245 | 0.0 | 0.0 | 0.00 | 0.00 | 0.00 | 98 | 1017.3 |
| 20260507212336 | 0 | 245 | 0.0 | 0.0 | 0.00 | 0.00 | 0.00 | 98 | 1017.3 |
| 20260507211833 | -1 | 245 | 0.0 | 0.0 | 0.00 | 0.00 | 0.00 | 98 | 1017.3 |
| 20260507211329 | -1 | 245 | 0.0 | 0.0 | 0.00 | 0.00 | 0.00 | 98 | 1017.2 |
| 20260507210842 | 0 | 245 | 0.0 | 0.0 | 0.00 | 0.00 | 0.00 | 98 | 1017.2 |
| 20260507210336 | 0 | 245 | 0.0 | 0.0 | 0.00 | 0.00 | 0.00 | 98 | 1017.2 |
| 20260507205843 | 0 | 245 | 0.0 | 0.0 | 0.00 | 0.00 | 0.00 | 98 | 1017.0 |
| 20260507205335 | 0 | 245 | 0.0 | 0.0 | 0.00 | 0.00 | 0.00 | 98 | 1017.0 |
| 20260507204831 | 0 | 245 | 0.0 | 0.0 | 0.00 | 0.00 | 0.00 | 98 | 1017.0 |
| 20260507204338 | 0 | 245 | 0.0 | 0.0 | 0.00 | 0.00 | 0.00 | 98 | 1016.8 |
| 20260507203850 | 0 | 245 | 0.0 | 0.0 | 0.00 | 0.00 | 0.00 | 98 | 1016.8 |
| 20260507203345 | 0 | 245 | 0.0 | 0.0 | 0.00 | 0.00 | 0.00 | 98 | 1016.8 |
| 20260507202836 | 0 | 245 | 0.0 | 0.0 | 0.00 | 0.00 | 0.00 | 97 | 1016.6 |
| 20260507202328 | 0 | 245 | 0.0 | 0.0 | 0.00 | 0.00 | 0.00 | 96 | 1016.6 |
| 20260507201840 | 0 | 245 | 0.0 | 0.0 | 0.00 | 0.00 | 0.00 | 95 | 1016.6 |
| 20260507201333 | 0 | 245 | 0.0 | 0.0 | 0.00 | 0.00 | 0.00 | 95 | 1016.4 |
| 20260507200830 | 0 | 245 | 0.0 | 0.0 | 0.00 | 0.00 | 0.00 | 94 | 1016.4 |
| 20260507200352 | 1 | 245 | 0.0 | 0.0 | 0.00 | 0.00 | 0.00 | 95 | 1016.4 |
| 20260507195843 | 1 | 245 | 0.0 | 0.0 | 0.00 | 0.00 | 0.00 | 95 | 1016.3 |
| 20260507195339 | 1 | 245 | 0.0 | 0.0 | 0.00 | 0.00 | 0.00 | 94 | 1016.3 |
| 20260507194831 | 1 | 245 | 0.0 | 0.0 | 0.00 | 0.00 | 0.00 | 94 | 1016.3 |
| 20260507194345 | 1 | 245 | 0.0 | 0.0 | 0.00 | 0.00 | 0.00 | 93 | 1016.2 |
| 20260507193837 | 1 | 245 | 0.0 | 0.0 | 0.00 | 0.00 | 0.00 | 93 | 1016.2 |
| 20260507193332 | 1 | 245 | 0.0 | 0.0 | 0.00 | 0.00 | 0.00 | 92 | 1016.2 |
| 20260507192846 | 1 | 245 | 0.0 | 0.0 | 0.00 | 0.00 | 0.00 | 90 | 1015.9 |
| 20260507192339 | 2 | 245 | 0.0 | 0.0 | 0.00 | 0.00 | 0.00 | 88 | 1015.9 |
| 20260507191831 | 2 | 245 | 0.0 | 0.0 | 0.00 | 0.00 | 0.00 | 89 | 1015.9 |
| 20260507191352 | 2 | 245 | 0.0 | 0.0 | 0.00 | 0.00 | 0.00 | 87 | 1015.8 |
| 20260507190844 | 2 | 245 | 0.0 | 0.0 | 0.00 | 0.00 | 0.00 | 85 | 1015.8 |
| 20260507190339 | 3 | 245 | 0.0 | 0.0 | 0.00 | 0.00 | 0.00 | 84 | 1015.8 |
| 20260507185830 | 3 | 245 | 0.0 | 0.0 | 0.00 | 0.00 | 0.00 | 84 | 1015.8 |
| 20260507185343 | 3 | 245 | 0.0 | 0.0 | 0.00 | 0.00 | 0.00 | 84 | 1015.8 |
| 20260507184835 | 4 | 245 | 0.0 | 0.0 | 0.00 | 0.00 | 0.00 | 83 | 1015.8 |
| 20260507184328 | 4 | 245 | 0.0 | 0.0 | 0.00 | 0.00 | 0.00 | 82 | 1015.8 |
| 20260507183825 | 4 | 245 | 0.0 | 0.0 | 0.00 | 0.00 | 0.00 | 82 | 1015.8 |
| 20260507183354 | 4 | 254 | 0.0 | 0.0 | 0.00 | 0.00 | 0.00 | 81 | 1015.8 |
| 20260507182845 | 5 | 261 | 0.0 | 0.0 | 0.00 | 0.00 | 0.00 | 81 | 1015.7 |
| 20260507182334 | 5 | 235 | 1.6 | 0.0 | 0.00 | 0.00 | 0.00 | 81 | 1015.7 |
| 20260507181846 | 5 | 283 | 1.6 | 0.0 | 0.00 | 0.00 | 0.00 | 81 | 1015.7 |
| 20260507181338 | 5 | 268 | 1.6 | 0.0 | 0.00 | 0.00 | 0.00 | 80 | 1015.6 |
| 20260507180829 | 5 | 265 | 0.0 | 0.0 | 0.00 | 0.00 | 0.00 | 80 | 1015.6 |
| 20260507180345 | 5 | 298 | 1.6 | 0.0 | 0.00 | 0.00 | 0.00 | 80 | 1015.6 |
| 20260507175833 | 5 | 268 | 4.8 | 0.0 | 0.00 | 0.00 | 0.00 | 79 | 1015.5 |
| 20260507175330 | 5 | 317 | 4.8 | 0.0 | 0.00 | 0.00 | 0.00 | 79 | 1015.5 |
| 20260507174852 | 5 | 300 | 4.8 | 0.0 | 0.00 | 0.00 | 0.00 | 78 | 1015.5 |
| 20260507174344 | 5 | 262 | 3.2 | 0.0 | 0.00 | 0.00 | 0.00 | 76 | 1015.3 |
| 20260507173836 | 5 | 233 | 4.8 | 0.0 | 0.00 | 0.00 | 0.00 | 75 | 1015.3 |
| 20260507173348 | 5 | 275 | 3.2 | 0.0 | 0.00 | 0.00 | 0.00 | 74 | 1015.3 |
| 20260507172837 | 5 | 267 | 0.0 | 0.0 | 0.00 | 0.00 | 0.00 | 73 | 1015.3 |
| 20260507172330 | 5 | 305 | 0.0 | 0.0 | 0.00 | 0.00 | 0.00 | 74 | 1015.3 |
| 20260507171842 | 5 | 286 | 3.2 | 0.0 | 0.00 | 0.00 | 0.00 | 75 | 1015.3 |
| 20260507171335 | 5 | 306 | 4.8 | 0.0 | 0.00 | 0.00 | 0.00 | 75 | 1015.1 |
| 20260507170859 | 5 | 326 | 4.8 | 0.0 | 0.00 | 0.00 | 0.00 | 74 | 1015.1 |
| 20260507170335 | 5 | 292 | 6.4 | 0.0 | 0.00 | 0.00 | 0.00 | 74 | 1015.1 |
| 20260507165843 | 5 | 319 | 6.4 | 0.0 | 0.00 | 0.00 | 0.00 | 74 | 1015.0 |
| 20260507165336 | 5 | 319 | 8.0 | 0.0 | 0.00 | 0.00 | 0.00 | 73 | 1015.0 |
| 20260507164829 | 5 | 291 | 8.0 | 0.0 | 0.00 | 0.00 | 0.00 | 73 | 1015.0 |
| 20260507164344 | 6 | 283 | 6.4 | 0.0 | 0.00 | 0.00 | 0.00 | 73 | 1014.8 |
| 20260507163837 | 6 | 282 | 6.4 | 0.0 | 0.00 | 0.00 | 0.00 | 73 | 1014.8 |
| 20260507163332 | 6 | 309 | 8.0 | 0.0 | 0.00 | 0.00 | 0.00 | 72 | 1014.8 |
| 20260507162852 | 6 | 296 | 8.0 | 0.0 | 0.00 | 0.00 | 0.00 | 72 | 1014.6 |
| 20260507162343 | 6 | 261 | 9.7 | 0.0 | 0.00 | 0.00 | 0.00 | 71 | 1014.6 |
| 20260507161833 | 6 | 255 | 9.7 | 0.0 | 0.00 | 0.00 | 0.00 | 70 | 1014.6 |
| 20260507161345 | 6 | 268 | 9.7 | 0.0 | 0.00 | 0.00 | 0.00 | 67 | 1014.5 |
| 20260507160837 | 6 | 288 | 9.7 | 0.0 | 0.00 | 0.00 | 0.00 | 65 | 1014.5 |
| 20260507160335 | 6 | 278 | 9.7 | 0.0 | 0.00 | 0.00 | 0.00 | 66 | 1014.5 |
| 20260507155827 | 6 | 259 | 8.0 | 0.0 | 0.00 | 0.00 | 0.00 | 67 | 1014.2 |
| 20260507155342 | 6 | 285 | 8.0 | 0.0 | 0.00 | 0.00 | 0.00 | 66 | 1014.2 |
| 20260507154833 | 7 | 303 | 4.8 | 0.0 | 0.00 | 0.00 | 0.00 | 64 | 1014.2 |
| 20260507154357 | 7 | 307 | 4.8 | 0.0 | 0.00 | 0.00 | 0.00 | 63 | 1014.1 |
| 20260507153848 | 7 | 316 | 8.0 | 0.0 | 0.00 | 0.00 | 0.00 | 63 | 1014.1 |
| 20260507153344 | 6 | 257 | 6.4 | 0.0 | 0.00 | 0.00 | 0.00 | 63 | 1014.1 |
| 20260507152833 | 7 | 286 | 1.6 | 0.0 | 0.00 | 0.00 | 0.00 | 63 | 1013.9 |
| 20260507152346 | 7 | 323 | 1.6 | 0.0 | 0.00 | 0.00 | 0.00 | 63 | 1013.9 |
| 20260507151837 | 6 | 334 | 1.6 | 0.0 | 0.00 | 0.00 | 0.00 | 64 | 1013.9 |
| 20260507151333 | 6 | 343 | 4.8 | 0.0 | 0.00 | 0.00 | 0.00 | 63 | 1013.8 |
| 20260507150841 | 6 | 346 | 6.4 | 0.0 | 0.00 | 0.00 | 0.00 | 62 | 1013.8 |
| 20260507150335 | 7 | 319 | 6.4 | 0.0 | 0.00 | 0.00 | 0.00 | 61 | 1013.8 |
| 20260507145829 | 7 | 336 | 4.8 | 0.0 | 0.00 | 0.00 | 0.00 | 63 | 1013.6 |
| 20260507145356 | 7 | 303 | 4.8 | 0.0 | 0.00 | 0.00 | 0.00 | 64 | 1013.6 |
| 20260507144848 | 7 | 309 | 4.8 | 0.0 | 0.00 | 0.00 | 0.00 | 64 | 1013.6 |
| 20260507144342 | 7 | 323 | 6.4 | 0.0 | 0.00 | 0.00 | 0.00 | 63 | 1013.4 |
| 20260507143838 | 8 | 309 | 6.4 | 0.0 | 0.00 | 0.00 | 0.00 | 57 | 1013.4 |
| 20260507143333 | 8 | 317 | 4.8 | 0.0 | 0.00 | 0.00 | 0.00 | 59 | 1013.4 |
| 20260507142843 | 8 | 348 | 1.6 | 0.0 | 0.00 | 0.00 | 0.00 | 57 | 1013.5 |
| 20260507142343 | 8 | 14 | 3.2 | 0.0 | 0.00 | 0.00 | 0.00 | 58 | 1013.5 |
| 20260507141835 | 8 | 274 | 6.4 | 0.0 | 0.00 | 0.00 | 0.00 | 58 | 1013.5 |
| 20260507141343 | 8 | 331 | 8.0 | 0.0 | 0.00 | 0.00 | 0.00 | 61 | 1013.4 |
| 20260507140835 | 8 | 298 | 6.4 | 0.0 | 0.00 | 0.00 | 0.00 | 61 | 1013.4 |
| 20260507140403 | 8 | 316 | 4.8 | 0.0 | 0.00 | 0.00 | 0.00 | 57 | 1013.4 |
| 20260507135852 | 9 | 319 | 1.6 | 0.0 | 0.00 | 0.00 | 0.00 | 57 | 1013.2 |
| 20260507135345 | 9 | 337 | 1.6 | 0.0 | 0.00 | 0.00 | 0.00 | 59 | 1013.2 |
| 20260507134841 | 9 | 315 | 1.6 | 0.0 | 0.00 | 0.00 | 0.00 | 60 | 1013.2 |
| 20260507134337 | 9 | 60 | 1.6 | 0.0 | 0.00 | 0.00 | 0.00 | 61 | 1013.1 |
| 20260507133835 | 9 | 3 | 3.2 | 0.0 | 0.00 | 0.00 | 0.00 | 59 | 1013.1 |
| 20260507133351 | 8 | 65 | 3.2 | 0.0 | 0.00 | 0.00 | 0.00 | 60 | 1013.1 |
| 20260507132843 | 9 | 300 | 1.6 | 0.0 | 0.00 | 0.00 | 0.00 | 58 | 1013.1 |
| 20260507132335 | 9 | 353 | 1.6 | 0.0 | 0.00 | 0.00 | 0.00 | 60 | 1013.1 |
| 20260507131846 | 9 | 347 | 1.6 | 0.0 | 0.00 | 0.00 | 0.00 | 60 | 1013.1 |
| 20260507131338 | 9 | 65 | 0.0 | 0.0 | 0.00 | 0.00 | 0.00 | 62 | 1013.0 |
| 20260507130830 | 8 | 48 | 1.6 | 0.0 | 0.00 | 0.00 | 0.00 | 62 | 1013.0 |
| 20260507130357 | 8 | 21 | 0.0 | 0.0 | 0.00 | 0.00 | 0.00 | 63 | 1013.0 |
| 20260507125847 | 7 | 24 | 0.0 | 0.0 | 0.00 | 0.00 | 0.00 | 65 | 1013.1 |
| 20260507125347 | 7 | 24 | 1.6 | 0.0 | 0.00 | 0.00 | 0.00 | 65 | 1013.1 |
| 20260507124840 | 8 | 24 | 1.6 | 0.0 | 0.00 | 0.00 | 0.00 | 63 | 1013.1 |
| 20260507124333 | 8 | 70 | 1.6 | 0.0 | 0.00 | 0.00 | 0.00 | 65 | 1013.1 |
| 20260507123829 | 8 | 38 | 1.6 | 0.0 | 0.00 | 0.00 | 0.00 | 64 | 1013.1 |
| 20260507123341 | 8 | 357 | 3.2 | 0.0 | 0.00 | 0.00 | 0.00 | 66 | 1013.1 |
| 20260507122831 | 8 | 350 | 1.6 | 0.0 | 0.00 | 0.00 | 0.00 | 63 | 1013.1 |
| 20260507122356 | 8 | 309 | 1.6 | 0.0 | 0.00 | 0.00 | 0.00 | 68 | 1013.1 |
| 20260507121847 | 7 | 29 | 3.2 | 0.0 | 0.00 | 0.00 | 0.00 | 70 | 1013.1 |
| 20260507121340 | 7 | 315 | 3.2 | 0.0 | 0.00 | 0.00 | 0.00 | 70 | 1013.3 |
| 20260507120833 | 6 | 337 | 1.6 | 0.0 | 0.00 | 0.00 | 0.00 | 72 | 1013.3 |
| 20260507120348 | 6 | 4 | 3.2 | 0.0 | 0.00 | 0.00 | 0.00 | 72 | 1013.3 |
| 20260507115838 | 6 | 323 | 1.6 | 0.0 | 0.00 | 0.00 | 0.00 | 72 | 1013.1 |
| 20260507115331 | 6 | 360 | 0.0 | 0.0 | 0.00 | 0.00 | 0.00 | 71 | 1013.1 |
| 20260507114847 | 6 | 354 | 0.0 | 0.0 | 0.00 | 0.00 | 0.00 | 72 | 1013.1 |
| 20260507114336 | 6 | 10 | 0.0 | 0.0 | 0.00 | 0.00 | 0.00 | 74 | 1013.1 |
| 20260507113832 | 6 | 27 | 0.0 | 0.0 | 0.00 | 0.00 | 0.00 | 76 | 1013.1 |
| 20260507113331 | 6 | 355 | 1.6 | 0.0 | 0.00 | 0.00 | 0.00 | 77 | 1013.1 |
| 20260507112857 | 6 | 355 | 1.6 | 0.0 | 0.00 | 0.00 | 0.00 | 76 | 1013.2 |
| 20260507112350 | 6 | 7 | 1.6 | 0.0 | 0.00 | 0.00 | 0.00 | 76 | 1013.2 |
| 20260507111845 | 6 | 4 | 3.2 | 0.0 | 0.00 | 0.00 | 0.00 | 76 | 1013.2 |
| 20260507111338 | 6 | 19 | 6.4 | 0.0 | 0.00 | 0.00 | 0.00 | 76 | 1013.1 |
| 20260507110835 | 6 | 326 | 8.0 | 0.0 | 0.00 | 0.00 | 0.00 | 75 | 1013.1 |
| 20260507110350 | 7 | 329 | 3.2 | 0.0 | 0.00 | 0.00 | 0.00 | 73 | 1013.1 |
| 20260507105841 | 7 | 319 | 3.2 | 0.0 | 0.00 | 0.00 | 0.00 | 71 | 1013.2 |
| 20260507105333 | 7 | 310 | 4.8 | 0.0 | 0.00 | 0.00 | 0.00 | 67 | 1013.2 |
| 20260507104842 | 8 | 286 | 3.2 | 0.0 | 0.00 | 0.00 | 0.00 | 55 | 1013.2 |
| 20260507104335 | 8 | 183 | 1.6 | 0.0 | 0.00 | 0.00 | 0.00 | 50 | 1013.2 |
| 20260507103832 | 8 | 187 | 1.6 | 0.0 | 0.00 | 0.00 | 0.00 | 52 | 1013.2 |
| 20260507103338 | 8 | 127 | 0.0 | 0.0 | 0.00 | 0.00 | 0.00 | 52 | 1013.2 |
| 20260507102828 | 8 | 141 | 1.6 | 0.0 | 0.00 | 0.00 | 0.00 | 52 | 1013.3 |